This is the latest recevied weather packets stored in our database for station/object NK7E-1. If no packets are shown the sender has not sent any weather packets the latest 10 day(s).
| Time | Temp. | Humidity | Pressure | Rain* | Wind** | Luminosity | Snow |
|---|---|---|---|---|---|---|---|
| 1788561002 | 35.56° C | 27% | 1013.8 hPa | 0 mm | - | - | - |
| 1788560403 | 35.56° C | 26% | 1013.8 hPa | 0 mm | - | - | - |
| 1788559802 | 35° C | 28% | 1014 hPa | 0 mm | - | - | - |
| 1788559205 | 35° C | 27% | 1014.1 hPa | 0 mm | - | - | - |
| 1788558603 | 34.44° C | 27% | 1014.1 hPa | 0 mm | - | - | - |
| 1788558002 | 34.44° C | 33% | 1014.2 hPa | 0 mm | - | - | - |
| 1788557403 | 34.44° C | 33% | 1014.4 hPa | 0 mm | - | - | - |
| 1788556803 | 33.89° C | 34% | 1014.5 hPa | 0 mm | - | - | - |
| 1788556203 | 35° C | 34% | 1014.5 hPa | 0 mm | - | - | - |
| 1788555602 | 34.44° C | 35% | 1014.6 hPa | 0 mm | - | - | - |
| 1788555002 | 33.89° C | 34% | 1014.6 hPa | 0 mm | - | - | - |
| 1788554403 | 34.44° C | 36% | 1014.9 hPa | 0 mm | - | - | - |
| 1788553803 | 33.89° C | 37% | 1015 hPa | 0 mm | - | - | - |
| 1788553203 | 34.44° C | 36% | 1015 hPa | 0 mm | - | - | - |
| 1788552603 | 34.44° C | 36% | 1015.3 hPa | 0 mm | - | - | - |
| 1788552004 | 35° C | 34% | 1015.4 hPa | 0 mm | - | - | - |
| 1788551403 | 34.44° C | 36% | 1015.6 hPa | 0 mm | - | - | - |
| 1788550803 | 33.89° C | 37% | 1015.7 hPa | 0 mm | - | - | - |
| 1788550202 | 35° C | 34% | 1015.9 hPa | 0 mm | - | - | - |
| 1788549603 | 34.44° C | 38% | 1015.9 hPa | 0 mm | - | - | - |
| 1788549002 | 33.33° C | 40% | 1016.1 hPa | 0 mm | - | - | - |
| 1788548403 | 32.78° C | 41% | 1016.3 hPa | 0 mm | - | - | - |
| 1788547803 | 32.22° C | 41% | 1016.4 hPa | 0 mm | - | - | - |
| 1788547202 | 33.33° C | 41% | 1016.5 hPa | 0 mm | - | - | - |
| 1788546603 | 33.33° C | 41% | 1016.6 hPa | 0 mm | - | - | - |
* Rain latest hour (hover to see other rain measurements)
** Current wind speed in m/s (hover to see current wind gust speed)